Weather History for KGTF - October, 2013

Change the Weather History Date:

Friday, October 18, 2013

  Actual Average Record
Temperature  
Mean Temperature 44 °F 45 °F  
Max Temperature 58 °F 57 °F 84 °F (1896)
Min Temperature 30 °F 32 °F 6 °F (1905)
Degree Days  
Heating Degree Days 21 20  
Month to date heating degree days 385 315  
Since 1 July heating degree days 575 722  
Cooling Degree Days 0 0  
Month to date cooling degree days 0 0  
Year to date cooling degree days 449 297  
Moisture  
Dew Point 29 °F    
Average Humidity 63    
Maximum Humidity 89    
Minimum Humidity 36    
Precipitation  
Precipitation 0.00 in 0.02 in 1.03 in (1910)
Month to date precipitation 0.34 0.56  
Year to date precipitation 10.07 13.31  
Snow  
Snow 0.00 in 0.10 in 3.40 in (1949)
Month to date snowfall T 1.9  
Since 1 July snowfall T 3.4  
Since 1 September snowfall T 3.1  
Snow Depth 0.00 in    
Sea Level Pressure  
Sea Level Pressure 30.17 in    
Wind  
Wind Speed 13 mph (SW)    
Max Wind Speed 23 mph    
Max Gust Speed 28 mph    
Visibility 10 miles    
Events      
T = Trace of Precipitation, MM = Missing Value Source: NWS Daily Summary

Daily Weather History Graph

Daily Weather History Graph

Search for Another Location

Airport or City:

Trip Planner

Search our weather history database for the weather conditions in past years. The results will help you decide how hot, cold, wet, or windy it might be!

Date:

Astronomy

Oct. 18, 2013 Rise Set
Actual Time 7:48 AM MDT 6:31 PM MDT
Civil Twilight 7:17 AM MDT 7:02 PM MDT
Nautical Twilight 6:42 AM MDT 7:38 PM MDT
Astronomical Twilight 6:06 AM MDT 8:13 PM MDT
Moon 6:21 PM MDT (10/18) 7:28 AM MDT (10/18)
Length of Visible Light 11h 44m
Length of Day
10h 42m
Full, 100% of the Moon is Illuminated
Oct 18
Full
Oct 18
Full
Oct 26
Last Quarter
Nov 3
New
Nov 9
First Quarter

Hourly Weather History & Observations

Time (MDT) Temp. Windchill Dew Point Humidity Pressure Visibility Wind Dir Wind Speed Gust Speed Precip Events Conditions
12:53 AM 30.0 °F 21.7 °F 27.0 °F 88% 30.35 in 10.0 mi WSW 9.2 mph - N/A   Clear
1:53 AM 32.0 °F 25.6 °F 28.0 °F 85% 30.34 in 10.0 mi WSW 6.9 mph - N/A   Overcast
2:53 AM 32.0 °F 24.8 °F 28.0 °F 85% 30.32 in 10.0 mi SSW 8.1 mph - N/A   Overcast
3:53 AM 34.0 °F 27.2 °F 30.0 °F 85% 30.31 in 10.0 mi SSW 8.1 mph - N/A   Overcast
4:53 AM 33.1 °F 24.9 °F 28.9 °F 85% 30.29 in 10.0 mi SSW 10.4 mph - N/A   Mostly Cloudy
5:53 AM 32.0 °F 23.6 °F 28.9 °F 88% 30.29 in 10.0 mi SSW 10.4 mph - N/A   Clear
6:53 AM 32.0 °F 23.6 °F 28.0 °F 85% 30.28 in 10.0 mi SSW 10.4 mph - N/A   Clear
7:53 AM 33.1 °F 23.9 °F 27.0 °F 78% 30.25 in 10.0 mi SSW 12.7 mph - N/A   Clear
8:53 AM 37.0 °F 28.5 °F 28.0 °F 70% 30.25 in 10.0 mi SSW 13.8 mph - N/A   Clear
9:53 AM 41.0 °F 32.5 °F 30.0 °F 65% 30.22 in 10.0 mi SSW 17.3 mph - N/A   Clear
10:53 AM 46.9 °F - 30.9 °F 54% 30.21 in 10.0 mi SSW 17.3 mph 23.0 mph N/A   Clear
11:53 AM 50.0 °F - 30.9 °F 48% 30.19 in 10.0 mi SW 16.1 mph - N/A   Clear
12:53 PM 54.0 °F - 30.0 °F 40% 30.16 in 10.0 mi SW 16.1 mph 21.9 mph N/A   Clear
1:53 PM 55.9 °F - 30.0 °F 37% 30.12 in 10.0 mi SW 16.1 mph - N/A   Clear
2:53 PM 57.0 °F - 30.9 °F 37% 30.09 in 10.0 mi SW 18.4 mph 24.2 mph N/A   Clear
3:53 PM 57.0 °F - 30.0 °F 36% 30.07 in 10.0 mi SW 19.6 mph 26.5 mph N/A   Clear
4:53 PM 55.9 °F - 30.0 °F 37% 30.06 in 10.0 mi SSW 19.6 mph 25.3 mph N/A   Clear
5:53 PM 54.0 °F - 30.0 °F 40% 30.06 in 10.0 mi SW 15.0 mph 23.0 mph N/A   Clear
6:53 PM 48.0 °F - 30.9 °F 52% 30.07 in 10.0 mi SW 10.4 mph - N/A   Clear
7:53 PM 46.0 °F 40.6 °F 30.0 °F 54% 30.06 in 10.0 mi SW 11.5 mph - N/A   Clear
8:53 PM 43.0 °F 36.8 °F 30.0 °F 60% 30.06 in 10.0 mi SW 11.5 mph - N/A   Clear
9:53 PM 42.1 °F 36.1 °F 28.9 °F 60% 30.05 in 10.0 mi SW 10.4 mph - N/A   Clear
10:53 PM 39.0 °F 32.3 °F 28.0 °F 65% 30.05 in 10.0 mi SW 10.4 mph - N/A   Clear
11:53 PM 41.0 °F 35.2 °F 28.0 °F 60% 30.03 in 10.0 mi SW 9.2 mph - N/A   Clear